[[{"header":{"parameterUnit":"m.s-1","parameterCategory":1,"la1":30.2991,"la2":30.254,"lo1":-89.0895,"lo2":-89.0444,"dy":0.0017,"dx":0.0017,"nx":28,"ny":28,"refTime":"2023-07-20T09:00:00:Z","depth":0,"parameterNumber":2,"parameterNumberName":"U-component_of_WINDS"},"data":[0,0,0,0,0,0,0,0,0,0,0,0,0,0,0,0,0,0,0,0,0,0,0,0,0,0,0,0,0,0,0,0,0,0,0,0,0,0,0,0,0,0,0,0,0,0,0,0,0,0,0,0,0,0,0,0,0,0,1.1951,1.1953,0,1.212,1.2122,1.2123,1.2199,1.2199,1.2199,1.2199,1.2371,1.2375,1.238,0,0,0,0,0,0,0,0,0,0,0,0,0,1.1692,1.1697,1.1951,1.1953,1.1955,1.2119,1.2122,1.2124,1.2199,1.2199,1.2199,1.2199,1.2369,1.2375,1.238,0,0,0,0,0,0,0,0,0,0,0,0,0,1.1827,1.1698,1.1951,1.2013,1.202,1.2119,1.2122,1.2125,1.2199,1.2199,1.2199,1.2199,1.2367,1.2374,1.2381,1.2431,0,0,1.2403,1.2406,0,0,0,0,0,0,0,0,1.1819,1.1837,1.2001,1.2009,1.2017,1.2138,1.2094,1.2227,1.22,1.2131,1.2199,1.2198,1.2293,1.2307,1.2339,1.2439,1.2446,1.2403,1.2408,1.2411,1.2413,0,0,0,0,0,0,0,1.181,1.183,1.2018,1.2004,1.2013,1.2031,1.205,1.2119,1.2212,1.2137,1.2143,1.2162,1.2298,1.2332,1.2343,1.2449,1.2403,1.241,1.2414,1.2417,1.2597,1.2598,0,0,0,0,0,0,1.1791,1.1821,1.2012,1.2023,1.1915,1.2036,1.2057,1.21,1.2211,1.2228,1.2162,1.2165,1.232,1.2335,1.235,1.2415,1.2411,1.2417,1.2422,1.2597,1.2597,1.2598,0,0,0,0,0,0,1.1785,1.1807,1.2006,1.1924,1.195,1.2041,1.2088,1.2103,1.2137,1.223,1.2247,1.218,1.232,1.234,1.241,1.2422,1.2421,1.2427,1.2596,1.2597,1.2598,1.2547,0,0,0,0,0,0,1.1777,1.1804,1.1825,1.1924,1.1955,1.2063,1.2089,1.2106,1.215,1.2155,1.2252,1.2267,1.2321,1.2399,1.2417,1.2432,1.2433,1.2596,1.2597,1.2598,1.2548,1.2545,1.2544,0,0,0,0,0,1.1768,1.1803,1.1825,1.1848,1.1982,1.2064,1.2082,1.2143,1.215,1.2171,1.2231,1.2264,1.2418,1.2405,1.2427,1.2444,1.2595,1.2596,1.2597,1.2548,1.2546,1.2544,0,0,0,0,0,0,1.1703,1.1818,1.1843,1.1912,1.1978,1.2077,1.2105,1.2139,1.2203,1.2206,1.2279,1.23,1.2364,1.2411,1.2395,1.2498,1.2509,1.2515,1.2465,1.2463,1.2461,1.2449,1.2439,0,0,0,0,0,1.1697,1.1755,1.1851,1.1903,1.1934,1.2013,1.2052,1.2094,1.2164,1.2192,1.2257,1.2324,1.2388,1.2428,1.2491,1.2554,1.2576,1.2576,1.2574,1.2572,1.2577,1.2613,1.2614,1.2602,1.2602,1.2602,0,0,1.1685,1.1754,1.1786,1.1892,1.1947,1.2005,1.2037,1.2096,1.2139,1.2201,1.2272,1.2321,1.2401,1.2468,1.25,1.2509,1.2585,1.2574,1.2572,1.2577,1.2614,1.2616,1.2616,1.2603,1.2603,1.2602,0,0,1.1693,1.1751,1.18,1.1855,1.194,1.1992,1.2003,1.2097,1.2133,1.2205,1.2252,1.2304,1.2412,1.2467,1.2509,1.2535,1.2569,1.2554,1.2544,1.2579,1.258,1.2581,1.2591,1.2594,1.2558,1.2557,1.2557,0,1.1667,1.1756,1.1821,1.1878,1.1923,1.1982,1.2032,1.2082,1.2182,1.2211,1.2219,1.2355,1.2413,1.2493,1.25,1.2532,1.2547,1.2544,1.2575,1.2577,1.2579,1.2589,1.2592,1.2555,1.2555,1.2556,1.2556,0,1.172,1.1781,1.1811,1.1907,1.1954,1.2007,1.208,1.2121,1.2158,1.2209,1.2281,1.2352,1.2431,1.2453,1.249,1.2538,1.2541,1.256,1.2574,1.2576,1.2587,1.2592,1.2552,1.2553,1.2553,1.2554,0,0,1.1693,1.1824,1.1833,1.1877,1.1974,1.2022,1.2077,1.2155,1.2188,1.2254,1.2303,1.2392,1.2411,1.2458,1.2502,1.2532,1.2549,1.2548,1.2551,1.2546,1.2607,1.2591,1.2595,1.2571,1.2572,1.2573,1.26,0,1.1714,1.1817,1.1877,1.1955,1.2012,1.2068,1.2116,1.218,1.2229,1.2284,1.2338,1.24,1.242,1.2449,1.2481,1.254,1.2562,1.2539,1.2617,1.2619,1.2596,1.2601,1.2585,1.2608,1.2605,1.2605,1.2606,0,1.1753,1.1819,1.1902,1.1992,1.2019,1.2061,1.2136,1.2188,1.2261,1.2295,1.2347,1.239,1.2451,1.2458,1.2542,1.2525,1.256,1.2593,1.2595,1.2606,1.2613,1.2611,1.2616,1.2619,1.2613,1.2613,1.2612,0,1.1725,1.1834,1.1899,1.1935,1.2041,1.2069,1.2115,1.2188,1.223,1.2296,1.2324,1.2395,1.2434,1.2488,1.255,1.255,1.2627,1.264,1.2656,1.2655,1.2671,1.2669,1.2682,1.2692,1.2692,1.2692,1.2692,0,1.1743,1.1792,1.1888,1.1927,1.1984,1.2051,1.2105,1.2155,1.2219,1.2269,1.2321,1.2366,1.2444,1.2499,1.2547,1.2609,1.2626,1.2655,1.2667,1.2651,1.2647,1.2675,1.2675,1.2693,1.2693,1.2693,1.2693,0,1.1722,1.1788,1.1862,1.1956,1.1981,1.2018,1.2099,1.2139,1.219,1.2252,1.2271,1.2351,1.2418,1.2484,1.2575,1.2607,1.2668,1.2684,1.2644,1.2651,1.2664,1.2662,1.2695,1.2703,1.2707,1.2707,1.2707,0,1.1729,1.1768,1.1867,1.1904,1.1948,1.2008,1.2051,1.2119,1.2162,1.2248,1.2278,1.2349,1.2409,1.2514,1.258,1.2649,1.2668,1.2675,1.2679,1.2661,1.2668,1.2666,1.267,1.2673,1.2673,1.2672,1.2672,0,1.1735,1.1766,1.1827,1.1899,1.195,1.201,1.2072,1.2099,1.2179,1.2224,1.2294,1.2341,1.2433,1.2503,1.2579,1.2626,1.2662,1.267,1.2678,1.2662,1.2637,1.2651,1.2639,1.2669,1.267,1.267,1.267,1.267,1.1729,1.1766,1.1841,1.1908,1.1961,1.2018,1.206,1.2117,1.2176,1.2256,1.2292,1.2362,1.2434,1.2541,1.2586,1.2642,1.2651,1.2662,1.2665,1.2666,1.2663,1.2627,1.2656,1.2656,1.2656,1.2656,1.2656,0,1.1738,1.1789,1.1849,1.1935,1.1986,1.2016,1.2086,1.2127,1.2188,1.2252,1.231,1.239,1.2458,1.2529,1.26,1.2631,1.2649,1.2648,1.2646,1.2656,1.265,1.2637,1.2631,1.2631,1.2631,1.2631,1.2631,1.2631,1.1749,1.1814,1.1853,1.1945,1.1995,1.2065,1.2102,1.2154,1.2206,1.2292,1.2349,1.2395,1.2461,1.2538,1.2602,1.2621,1.2645,1.2638,1.2662,1.2655,1.2657,1.2658,1.2646,1.2643,1.2643,1.2664,1.2664,1.2664]},{"header":{"parameterUnit":"m.s-1","parameterCategory":1,"la1":30.2991,"la2":30.254,"lo1":-89.0895,"lo2":-89.0444,"dy":0.0017,"dx":0.0017,"nx":28,"ny":28,"refTime":"2023-07-20T09:00:00:Z","depth":0,"parameterNumber":3,"parameterNumberName":"V-component_of_WINDS"},"data":[0,0,0,0,0,0,0,0,0,0,0,0,0,0,0,0,0,0,0,0,0,0,0,0,0,0,0,0,0,0,0,0,0,0,0,0,0,0,0,0,0,0,0,0,0,0,0,0,0,0,0,0,0,0,0,0,0,0,5.2921,5.292,0,5.2855,5.2854,5.2853,5.2758,5.2756,5.2754,5.2753,5.2684,5.2683,5.2683,0,0,0,0,0,0,0,0,0,0,0,0,0,5.2964,5.2964,5.2921,5.292,5.292,5.2855,5.2854,5.2853,5.2758,5.2756,5.2754,5.2752,5.2684,5.2683,5.2683,0,0,0,0,0,0,0,0,0,0,0,0,0,5.2926,5.2963,5.2921,5.2864,5.2858,5.2855,5.2854,5.2853,5.2758,5.2756,5.2753,5.2751,5.2684,5.2683,5.2683,5.273,0,0,5.2682,5.2681,0,0,0,0,0,0,0,0,5.2929,5.2925,5.2873,5.2868,5.2862,5.2812,5.2844,5.2812,5.2759,5.2796,5.2753,5.275,5.2728,5.2724,5.2717,5.2727,5.2724,5.2681,5.2681,5.2681,5.2681,0,0,0,0,0,0,0,5.2931,5.2927,5.2895,5.2873,5.2866,5.2842,5.2834,5.2837,5.2777,5.2793,5.2786,5.2779,5.2725,5.2718,5.2715,5.2723,5.2682,5.2681,5.2681,5.2681,5.2767,5.2769,0,0,0,0,0,0,5.2943,5.293,5.2897,5.2893,5.289,5.2843,5.2834,5.2831,5.2777,5.2766,5.2782,5.2775,5.272,5.2715,5.2712,5.2763,5.2681,5.2681,5.268,5.2764,5.2767,5.277,0,0,0,0,0,0,5.2944,5.294,5.29,5.2909,5.2902,5.2845,5.2842,5.2831,5.2823,5.2768,5.2757,5.2786,5.2718,5.2712,5.2726,5.2759,5.268,5.268,5.2761,5.2765,5.2769,5.2866,0,0,0,0,0,0,5.2945,5.2942,5.2959,5.2911,5.2902,5.2916,5.2844,5.2831,5.2823,5.2814,5.2769,5.2759,5.2715,5.2727,5.2726,5.2757,5.268,5.2758,5.2763,5.2768,5.2859,5.2872,5.2884,0,0,0,0,0,5.2947,5.2989,5.296,5.2957,5.2923,5.2918,5.2913,5.2862,5.2826,5.2843,5.2808,5.2761,5.2756,5.273,5.2727,5.2759,5.2756,5.2762,5.2767,5.2854,5.287,5.2883,0,0,0,0,0,0,5.3042,5.2981,5.2949,5.2976,5.2953,5.2902,5.2921,5.2881,5.2867,5.2859,5.2796,5.2786,5.2808,5.2784,5.2756,5.2801,5.2749,5.2754,5.2816,5.283,5.2842,5.2847,5.2679,0,0,0,0,0,5.3066,5.3067,5.3014,5.3043,5.3033,5.298,5.2975,5.2938,5.2911,5.2901,5.2866,5.2842,5.2834,5.2831,5.2821,5.2856,5.2844,5.2876,5.2888,5.2899,5.2904,5.292,5.2934,5.2789,5.2789,5.2789,0,0,5.3115,5.3083,5.3087,5.3061,5.3039,5.3041,5.2972,5.2977,5.2978,5.2901,5.2912,5.2886,5.2854,5.2879,5.2888,5.286,5.2941,5.2906,5.2915,5.2914,5.2927,5.2941,5.2953,5.2793,5.2792,5.2792,0,0,5.3207,5.3182,5.3204,5.3183,5.315,5.3114,5.312,5.3075,5.3055,5.3065,5.3007,5.3007,5.2997,5.2976,5.2965,5.3049,5.3005,5.3048,5.3111,5.3127,5.3139,5.3149,5.3178,5.319,5.3053,5.3054,5.3054,0,5.3272,5.3274,5.322,5.3229,5.3219,5.3151,5.3171,5.3154,5.312,5.3114,5.3084,5.3069,5.3043,5.3061,5.3082,5.3075,5.3079,5.3052,5.3142,5.3151,5.3159,5.3187,5.3198,5.3059,5.3058,5.3058,5.3057,0,5.3356,5.3358,5.3379,5.3349,5.3341,5.3356,5.3304,5.3303,5.3267,5.3234,5.3245,5.3212,5.3194,5.3196,5.316,5.3209,5.3193,5.3153,5.3099,5.3179,5.3204,5.3214,5.3067,5.3065,5.3063,5.3062,0,0,5.3504,5.3444,5.3453,5.3438,5.3397,5.3397,5.3409,5.3393,5.3393,5.3372,5.338,5.3373,5.3336,5.3323,5.3284,5.3299,5.3368,5.3257,5.3255,5.3278,5.3419,5.3449,5.3462,5.3339,5.334,5.3342,5.3422,0,5.3587,5.3605,5.3556,5.3586,5.3587,5.3522,5.3532,5.3509,5.3479,5.3475,5.3441,5.3437,5.3389,5.3381,5.3392,5.3357,5.3395,5.3351,5.3345,5.3345,5.3354,5.3475,5.3507,5.3584,5.3431,5.3433,5.3434,0,5.3686,5.3671,5.3701,5.3658,5.3657,5.3667,5.3648,5.3646,5.3617,5.3594,5.358,5.3536,5.3544,5.3493,5.3503,5.3474,5.3469,5.3451,5.3453,5.345,5.3394,5.3475,5.3607,5.3618,5.3449,5.3447,5.3446,0,5.3791,5.3778,5.3794,5.3783,5.3734,5.3743,5.3723,5.3692,5.3685,5.3669,5.3663,5.3648,5.3639,5.3628,5.358,5.3548,5.3596,5.3541,5.3577,5.3578,5.3589,5.3589,5.3722,5.3587,5.3587,5.3587,5.3587,0,5.3888,5.3909,5.384,5.385,5.3871,5.3816,5.3838,5.3811,5.3785,5.3788,5.3731,5.3735,5.3672,5.3669,5.3632,5.3646,5.3642,5.3624,5.3613,5.3628,5.3631,5.3624,5.3617,5.359,5.3589,5.3589,5.3588,0,5.4009,5.3964,5.3977,5.393,5.3918,5.3936,5.3895,5.3902,5.3869,5.3874,5.3872,5.382,5.3813,5.3765,5.3747,5.3722,5.375,5.3729,5.376,5.3753,5.3791,5.3788,5.3924,5.3938,5.3795,5.3797,5.3798,0,5.4073,5.4088,5.4043,5.4041,5.4024,5.4022,5.4015,5.3961,5.3956,5.3925,5.3935,5.3925,5.3913,5.3906,5.3866,5.3852,5.383,5.3879,5.3828,5.3842,5.383,5.383,5.3831,5.3889,5.3891,5.3893,5.3894,0,5.4193,5.417,5.4163,5.4148,5.4141,5.4126,5.4108,5.411,5.405,5.4047,5.404,5.4032,5.4014,5.4004,5.3983,5.3962,5.3918,5.3911,5.3918,5.3933,5.395,5.3941,5.3789,5.3907,5.3906,5.3905,5.3904,5.3904,5.4287,5.4297,5.4267,5.426,5.4241,5.4226,5.423,5.4198,5.4191,5.4173,5.4142,5.414,5.411,5.4078,5.406,5.4057,5.4032,5.4043,5.4045,5.4049,5.4057,5.3951,5.4053,5.4053,5.4052,5.4052,5.4052,0,5.4404,5.4381,5.4376,5.4353,5.4348,5.4308,5.4285,5.4284,5.4283,5.4259,5.4249,5.4242,5.4232,5.4191,5.4177,5.4182,5.4162,5.418,5.4179,5.4174,5.408,5.4075,5.4197,5.4197,5.4197,5.4197,5.4197,5.4197,5.4464,5.4478,5.4452,5.4457,5.4434,5.4432,5.4422,5.4407,5.4389,5.4383,5.4374,5.4348,5.4318,5.4301,5.429,5.4278,5.4275,5.43,5.4282,5.4195,5.4181,5.4168,5.4162,5.43,5.43,5.4376,5.4377,5.4377]}]]